OBJECT B, 66176

Orbit data source: Space-Track

You're viewing an Uncataloged Satellite

Recently launched and/or uncataloged satellites may have evolving metadata. Metadata may include but not limited to: Owner, Maufacturer, Bus, Motor, and Mission.

OBJECT B, 66176 is a satellite owned by CASC (CN) in SSO that was launched on Sun, 26 Oct 2025 UTC launched from the Xichang Space Center, China (XSC). Unknown objects in Earth's orbit typically refer to objects detected orbiting the Earth but have not yet been identified or cataloged. These objects could be anything from previously untracked satellites, spent rocket stages, debris from satellite collisions, or even natural meteoroids temporarily captured by Earth's gravity.

Loading next visibility...
Identifier
66176, 2025-242B
Orbit
SSO
Country
Flag of CNCN / PRC
Related business
Manufacturer
CALT
Mission
Spacecraft
Bus & Motor
CZ-3A STAGE 3, Unknown motor
Mass
~2,800 kg wet, ~2,800 kg dry
Launch date (UTC)
2025-10-26 (6 days ago)
Launch vehicle
Unknown
Launch site
Xichang Space Center, China (XSC)
Object type
Unknown
Shape & HBR
Unknown
Radar Cross Section
RCS unknown

Expand to show TLE details & history
Last TLE update: 3 days ago

TLE from 3 days ago
0 OBJECT B
1 66176U 25242B   25301.93325123  .00036568  00000-0  72796-3 0  9992
2 66176  97.4517  13.9913 0105040  32.7474 328.0225 15.40950652   430
Epoch: 2025-10-28T22:23Z
TLE epoch observation values (Epoch: 2025-10-28T22:23:52.906Z)
Latitude
-0.00001°
Longitude
0.50722°
Altitude
385.841 km
Speed
7.713 km/s
True Right ascension
00h 55m 57s
True Declination
0° 00' 00"
Sunlit
Object was in full shadow at epoch
Visualization orbit readout
Latitude
Unknown
Longitude
Unknown
Altitude
Unknown
Speed
Unknown
Apparent Right ascension
Unknown
Apparent Declination
Unknown
Sunlit
N/A
Visualization observer readout
Local Sidereal Time
15:45:56
Azimuth
Unknown
Elevation
Unknown
Doppler factor
Unknown
Orbital elements
Apogee altitude
511.862 km
Perigee altitude
368.622 km
Semi-major axis
6,818.379 km
Eccentricity
0.0105
Inclination
97.4517°
RAAN
13.9913°
Arg. of periapsis
32.7474°
True anomaly
327.37789°
Mean anomaly
328.0225°
Eccentric anomaly
327.70092°
Mean motion
3.85497 °/min
Orbital period
93.39 mins
BSTAR
0.00072796
Loading maneuver chart data...
Computing Atmospheric mass density...
Loading historical data...
Loading historical data...
Loading historical data...
Loading historical data...
Loading historical data...
Loading historical data...
Loading historical data...
Other satellites on launch #242 in the year 2025 (2025-10-26 UTC)

Documentation

Showing up to 5 results
|